| time (UTC) | temp F | wind direction | speed knots | gust knots | rain 1hr in | rain 24hr in | rain mn in | humidity % | barometer mb |
| 20260906083024 | 74 | 296 | 0.0 | 0.0 | 0.00 | 0.00 | 0.00 | 88 | 1010.7 |
| 20260906081529 | 73 | 296 | 0.0 | 1.7 | 0.00 | 0.00 | 0.00 | 89 | 1010.6 |
| 20260906080022 | 73 | 176 | 0.0 | 0.0 | 0.00 | 0.00 | 0.00 | 90 | 1010.3 |
| 20260906074522 | 73 | 176 | 0.0 | 0.0 | 0.00 | 0.00 | 0.00 | 89 | 1010.2 |
| 20260906073020 | 73 | 176 | 0.0 | 0.0 | 0.00 | 0.00 | 0.00 | 88 | 1010.4 |
| 20260906071518 | 73 | 176 | 0.0 | 0.0 | 0.00 | 0.00 | 0.00 | 87 | 1010.5 |
| 20260906070017 | 74 | 176 | 0.0 | 0.0 | 0.00 | 0.00 | 0.00 | 86 | 1010.6 |
| 20260906064522 | 74 | 184 | 0.0 | 0.9 | 0.00 | 0.00 | 0.00 | 86 | 1010.8 |
| 20260906063012 | 75 | 294 | 0.0 | 0.9 | 0.00 | 0.00 | 0.00 | 86 | 1010.8 |
| 20260906061510 | 75 | 294 | 0.0 | 0.9 | 0.00 | 0.00 | 0.00 | 87 | 1011.1 |
| 20260906060011 | 75 | 294 | 0.0 | 0.0 | 0.00 | 0.00 | 0.00 | 87 | 1011.4 |
| 20260906054507 | 75 | 294 | 0.0 | 0.0 | 0.00 | 0.00 | 0.00 | 87 | 1011.6 |
| 20260906053004 | 75 | 294 | 0.0 | 0.0 | 0.00 | 0.00 | 0.00 | 86 | 1011.8 |
| 20260906051602 | 75 | 294 | 0.0 | 0.9 | 0.00 | 0.00 | 0.00 | 86 | 1011.9 |
| 20260906050111 | 75 | 294 | 0.0 | 0.9 | 0.00 | 0.00 | 0.00 | 86 | 1012.0 |
| 20260906044551 | 75 | 294 | 0.0 | 0.9 | 0.00 | 0.00 | 0.00 | 85 | 1011.9 |
| 20260906043046 | 75 | 294 | 0.0 | 0.9 | 0.00 | 0.00 | 0.00 | 84 | 1011.8 |
| 20260906041545 | 75 | 285 | 0.0 | 0.9 | 0.00 | 0.00 | 0.00 | 84 | 1011.5 |
| 20260906040041 | 75 | 285 | 0.0 | 0.9 | 0.00 | 0.00 | 0.00 | 85 | 1011.6 |
| 20260906034540 | 75 | 216 | 0.0 | 0.9 | 0.00 | 0.00 | 0.00 | 85 | 1011.6 |
| 20260906033037 | 75 | 216 | 0.0 | 0.9 | 0.00 | 0.00 | 0.00 | 84 | 1011.7 |
| 20260906031604 | 75 | 216 | 0.0 | 0.0 | 0.00 | 0.00 | 0.00 | 84 | 1011.7 |
| 20260906030038 | 75 | 216 | 0.0 | 0.0 | 0.00 | 0.00 | 0.00 | 84 | 1011.6 |
| 20260906024542 | 76 | 216 | 0.0 | 0.0 | 0.00 | 0.00 | 0.00 | 84 | 1011.5 |
| 20260906023043 | 76 | 216 | 0.0 | 0.0 | 0.00 | 0.00 | 0.00 | 83 | 1011.5 |
| 20260906021535 | 76 | 216 | 0.0 | 0.0 | 0.00 | 0.00 | 0.00 | 82 | 1011.6 |
| 20260906020044 | 77 | 215 | 0.0 | 0.0 | 0.00 | 0.00 | 0.00 | 82 | 1011.4 |
| 20260906014534 | 77 | 215 | 0.0 | 0.9 | 0.00 | 0.00 | 0.00 | 81 | 1011.4 |
| 20260906013033 | 77 | 257 | 0.0 | 0.9 | 0.00 | 0.00 | 0.00 | 80 | 1011.6 |
| 20260906011533 | 78 | 257 | 0.0 | 0.0 | 0.00 | 0.00 | 0.00 | 79 | 1011.5 |
| 20260906010034 | 78 | 257 | 0.0 | 0.9 | 0.00 | 0.00 | 0.00 | 77 | 1011.4 |
| 20260906004531 | 79 | 184 | 0.0 | 1.7 | 0.00 | 0.00 | 0.00 | 76 | 1011.2 |
| 20260906003031 | 80 | 231 | 0.0 | 0.9 | 0.00 | 0.00 | 0.00 | 73 | 1010.9 |
| 20260906001539 | 82 | 251 | 0.0 | 0.9 | 0.00 | 0.00 | 0.00 | 70 | 1010.4 |
| 20260906000030 | 83 | 223 | 0.0 | 4.3 | 0.00 | 0.00 | 0.00 | 66 | 1010.8 |
| 20260905234532 | 83 | 46 | 2.6 | 5.2 | 0.00 | 0.00 | 0.00 | 64 | 1010.2 |
| 20260905233032 | 83 | 334 | 0.0 | 0.9 | 0.00 | 0.00 | 0.00 | 64 | 1010.3 |
| 20260905231534 | 83 | 50 | 0.0 | 0.9 | 0.00 | 0.00 | 0.00 | 64 | 1010.3 |
| 20260905230027 | 84 | 50 | 0.0 | 2.6 | 0.00 | 0.00 | 0.00 | 62 | 1010.2 |
| 20260905224527 | 84 | 15 | 0.0 | 2.6 | 0.00 | 0.00 | 0.00 | 63 | 1010.3 |
| 20260905223027 | 84 | 4 | 0.0 | 3.5 | 0.00 | 0.00 | 0.00 | 63 | 1010.3 |
| 20260905221525 | 83 | 9 | 0.0 | 2.6 | 0.00 | 0.00 | 0.00 | 65 | 1010.2 |
| 20260905220024 | 82 | 293 | 0.0 | 0.9 | 0.00 | 0.00 | 0.00 | 68 | 1010.1 |
| 20260905214524 | 82 | 293 | 0.0 | 0.9 | 0.00 | 0.00 | 0.00 | 70 | 1010.4 |
| 20260905213023 | 83 | 155 | 0.0 | 1.7 | 0.00 | 0.00 | 0.00 | 66 | 1010.6 |
| 20260905211523 | 84 | 158 | 0.9 | 2.6 | 0.00 | 0.00 | 0.00 | 61 | 1010.7 |
| 20260905210022 | 84 | 346 | 0.0 | 4.3 | 0.00 | 0.00 | 0.00 | 58 | 1010.8 |
| 20260905204525 | 84 | 22 | 0.9 | 4.3 | 0.00 | 0.00 | 0.00 | 60 | 1011.2 |
| 20260905203021 | 85 | 30 | 1.7 | 8.7 | 0.00 | 0.00 | 0.00 | 57 | 1011.3 |
| 20260905201521 | 86 | 27 | 6.1 | 16.5 | 0.00 | 0.00 | 0.00 | 58 | 1010.9 |
| 20260905200020 | 88 | 330 | 6.1 | 19.1 | 0.00 | 0.00 | 0.00 | 55 | 1010.6 |
| 20260905194519 | 92 | 32 | 7.0 | 20.0 | 0.00 | 0.00 | 0.00 | 55 | 1010.4 |
| 20260905193017 | 97 | 35 | 5.2 | 6.1 | 0.00 | 0.00 | 0.00 | 47 | 1010.0 |
| 20260905191515 | 98 | 36 | 4.3 | 6.1 | 0.00 | 0.00 | 0.00 | 48 | 1010.1 |
| 20260905190026 | 97 | 48 | 2.6 | 3.5 | 0.00 | 0.00 | 0.00 | 49 | 1009.9 |
| 20260905184511 | 96 | 70 | 0.9 | 2.6 | 0.00 | 0.00 | 0.00 | 45 | 1010.2 |
| 20260905183012 | 96 | 67 | 1.7 | 2.6 | 0.00 | 0.00 | 0.00 | 46 | 1010.2 |
| 20260905181505 | 95 | 60 | 1.7 | 2.6 | 0.00 | 0.00 | 0.00 | 50 | 1010.7 |
| 20260905180004 | 95 | 53 | 1.7 | 3.5 | 0.00 | 0.00 | 0.00 | 51 | 1011.0 |
| 20260905174558 | 95 | 39 | 3.5 | 4.3 | 0.00 | 0.00 | 0.00 | 52 | 1011.2 |
| 20260905173113 | 94 | 75 | 1.7 | 3.5 | 0.00 | 0.00 | 0.00 | 53 | 1011.2 |
| 20260905171556 | 93 | 58 | 1.7 | 2.6 | 0.00 | 0.00 | 0.00 | 57 | 1011.3 |
| 20260905170049 | 92 | 54 | 2.6 | 4.3 | 0.00 | 0.00 | 0.00 | 60 | 1011.7 |
| 20260905164547 | 92 | 56 | 2.6 | 3.5 | 0.00 | 0.00 | 0.00 | 64 | 1012.0 |
| 20260905163044 | 92 | 63 | 2.6 | 3.5 | 0.00 | 0.00 | 0.00 | 61 | 1012.2 |
| 20260905161544 | 91 | 53 | 2.6 | 3.5 | 0.00 | 0.00 | 0.00 | 67 | 1012.4 |
| 20260905160052 | 91 | 49 | 2.6 | 3.5 | 0.00 | 0.00 | 0.00 | 65 | 1012.4 |
| 20260905154549 | 90 | 48 | 2.6 | 3.5 | 0.00 | 0.00 | 0.00 | 66 | 1012.5 |
| 20260905153040 | 90 | 51 | 2.6 | 3.5 | 0.00 | 0.00 | 0.00 | 65 | 1012.7 |
| 20260905151538 | 89 | 56 | 1.7 | 3.5 | 0.00 | 0.00 | 0.00 | 66 | 1012.9 |
| 20260905150041 | 88 | 63 | 2.6 | 3.5 | 0.00 | 0.00 | 0.00 | 68 | 1012.9 |
| 20260905144538 | 89 | 42 | 0.9 | 2.6 | 0.00 | 0.00 | 0.00 | 67 | 1012.9 |
| 20260905143035 | 91 | 304 | 0.9 | 1.7 | 0.00 | 0.00 | 0.00 | 61 | 1013.2 |
| 20260905141533 | 90 | 302 | 0.9 | 1.7 | 0.00 | 0.00 | 0.00 | 62 | 1013.2 |
| 20260905140030 | 89 | 53 | 0.9 | 1.7 | 0.00 | 0.00 | 0.00 | 65 | 1013.3 |
| 20260905134528 | 88 | 309 | 0.0 | 1.7 | 0.00 | 0.00 | 0.00 | 66 | 1013.3 |
| 20260905133027 | 87 | 313 | 0.0 | 1.7 | 0.00 | 0.00 | 0.00 | 69 | 1013.4 |
| 20260905131521 | 85 | 311 | 0.9 | 2.6 | 0.00 | 0.00 | 0.00 | 72 | 1013.6 |
| 20260905130017 | 83 | 307 | 0.0 | 0.9 | 0.00 | 0.00 | 0.00 | 76 | 1013.5 |
| 20260905124516 | 82 | 298 | 0.0 | 0.9 | 0.00 | 0.00 | 0.00 | 77 | 1013.5 |
| 20260905123012 | 80 | 164 | 0.0 | 1.7 | 0.00 | 0.00 | 0.00 | 81 | 1013.5 |
| 20260905121512 | 77 | 153 | 0.0 | 0.9 | 0.00 | 0.00 | 0.00 | 86 | 1013.5 |
| 20260905120023 | 74 | 152 | 0.0 | 0.0 | 0.00 | 0.00 | 0.00 | 90 | 1013.3 |
| 20260905114511 | 73 | 152 | 0.0 | 0.0 | 0.00 | 0.00 | 0.00 | 90 | 1013.1 |
| 20260905113009 | 73 | 161 | 0.0 | 1.7 | 0.00 | 0.00 | 0.00 | 91 | 1013.1 |
| 20260905111509 | 73 | 163 | 0.0 | 0.0 | 0.00 | 0.00 | 0.00 | 91 | 1012.7 |
| 20260905110017 | 73 | 163 | 0.0 | 0.0 | 0.00 | 0.00 | 0.00 | 90 | 1012.7 |
| 20260905104510 | 73 | 163 | 0.0 | 0.0 | 0.00 | 0.00 | 0.00 | 90 | 1012.6 |
| 20260905103109 | 73 | 163 | 0.0 | 0.0 | 0.00 | 0.00 | 0.00 | 90 | 1012.5 |
| 20260905101507 | 73 | 163 | 0.0 | 0.0 | 0.00 | 0.00 | 0.00 | 90 | 1012.3 |
| 20260905100005 | 73 | 163 | 0.0 | 0.0 | 0.00 | 0.00 | 0.00 | 89 | 1012.4 |
| 20260905094504 | 73 | 163 | 0.0 | 0.0 | 0.00 | 0.00 | 0.00 | 89 | 1012.5 |
| 20260905093004 | 74 | 163 | 0.0 | 0.0 | 0.00 | 0.00 | 0.00 | 88 | 1012.5 |
| 20260905091501 | 74 | 163 | 0.0 | 0.0 | 0.00 | 0.00 | 0.00 | 88 | 1012.5 |
| 20260905090100 | 74 | 163 | 0.0 | 0.0 | 0.00 | 0.00 | 0.00 | 88 | 1012.4 |
| 20260905084601 | 74 | 163 | 0.0 | 0.0 | 0.00 | 0.00 | 0.00 | 88 | 1012.5 |